Location: Couloutre
(47.4081°N, 3.2259°E)
Time: 09:41:20
(UTC+00:00)

Cosmos 2369 Rocket - Pass Details

Date: 27 February 2020
Orbit: 827 x 854 km, 71.0° (Epoch: 29 March)

Event Time Altitude Azimuth Distance (km) Brightness Sun altitude
Rises 18:53:33 0° 238° (WSW) 3,390 6.3 -15.2°
Reaches altitude 10° 18:56:15 10° 249° (WSW) 2,464 5.6 -15.6°
Maximum altitude 19:01:14 31° 311° (NW) 1,453 4.0 -16.5°
Drops below altitude 10° 19:06:17 10° 12° (NNE) 2,490 4.6 -17.3°
Sets 19:09:03 0° 23° (NNE) 3,432 5.2 -17.8°
